{"data":{"norad_id":41599,"epoch":"2026-05-25T04:56:29.443776Z","epoch_age_seconds":53104,"freshness":"FRESH","line1":"1 41599U 16040A   26145.20589634  .00001729  00000+0  85162-4 0  9998","line2":"2 41599  97.4494 205.4972 0009210 205.6682 154.4097 15.19271105550223","mean_motion":15.19271105,"eccentricity":0.000921,"inclination_deg":97.4494,"raan_deg":205.4972,"arg_perigee_deg":205.6682,"mean_anomaly_deg":154.4097,"bstar":8.5162e-5,"rev_number":55022,"period_min":94.782293644688,"perigee_km":501.70006672416,"apogee_km":514.38440888019,"semimajor_km":6886.1792378022,"source":"CELESTRAK","updated_at":"2026-05-25T13:38:12.820579Z"}}